Voltar ao catálogo

DELTA 1 DEB

AtivoUNKNOWN
NORAD 28979·DEBRIS·🇺🇸 United States

Lançado Jul 29, 1976 de Vandenberg Space Force Base

Loading…

Próximas Passagens (próximas 24 horas)

TLE

AtualizadoSource: Space-Track

Época: Sep 13, 2026, 18:15 UTC

1 28979U 76077FU  26256.76072203 -.00000001  00000-0  61894-3 0  9993
2 28979 102.0330 354.6378 0802759 183.0076 176.5887 10.95268112893140

Acompanhe DELTA 1 DEB em tempo real com AllMySat

Download on the App Store